Weather History for KHNZ - August, 2014

Change the Weather History Date:

Wednesday, August 27, 2014

  Actual Average (KTDF) Record (KTDF)
Temperature  
Mean Temperature 70 °F -  
Max Temperature 83 °F 85 °F 95 °F (1965)
Min Temperature 57 °F 62 °F 53 °F (1968)
Cooling Degree Days 5    
Growing Degree Days 20 (Base 50)    
Moisture  
Dew Point 61 °F    
Average Humidity 75    
Maximum Humidity 96    
Minimum Humidity 41    
Precipitation  
Precipitation 0.00 in - - ()
Sea Level Pressure  
Sea Level Pressure 30.04 in    
Wind  
Wind Speed 2 mph (NNW)    
Max Wind Speed 8 mph    
Max Gust Speed -    
Visibility 8 miles    
Events Fog    
Averages and records for this station are not official NWS values.
T = Trace of Precipitation, MM = Missing Value Source: NWS Daily Summary

Daily Weather History Graph

Daily Weather History Graph

Search for Another Location

Airport or City:

Trip Planner

Search our weather history database for the weather conditions in past years. The results will help you decide how hot, cold, wet, or windy it might be!

Date:

Astronomy

Aug. 27, 2014 Rise Set
Actual Time 6:41 AM EDT 7:49 PM EDT
Civil Twilight 6:14 AM EDT 8:15 PM EDT
Nautical Twilight 5:43 AM EDT 8:47 PM EDT
Astronomical Twilight 5:10 AM EDT 9:19 PM EDT
Moon 8:31 AM EDT (8/27) 8:45 PM EDT (8/27)
Length of Visible Light 14h 00m
Length of Day
13h 07m
Waxing Crescent, 4% of the Moon is Illuminated
Aug 27
Waxing Crescent
Sep 2
First Quarter
Sep 8
Full
Sep 15
Last Quarter
Sep 24
New

Hourly Weather History & Observations

Time (EDT) Temp. Heat Index Dew Point Humidity Pressure Visibility Wind Dir Wind Speed Gust Speed Precip Events Conditions
12:15 AM 63.9 °F - 62.1 °F 94% 30.09 in 10.0 mi Calm Calm - N/A   Clear
12:35 AM 64.2 °F - 62.6 °F 94% 30.09 in 7.0 mi Calm Calm - N/A   Clear
12:55 AM 62.8 °F - 61.2 °F 94% 30.09 in 4.0 mi Calm Calm - N/A   Clear
1:15 AM 63.7 °F - 62.2 °F 95% 30.08 in 1.8 mi Calm Calm - N/A   Mist
1:35 AM 62.8 °F - 61.5 °F 96% 30.08 in 2.5 mi Calm Calm - N/A   Clear
1:55 AM 61.5 °F - 60.1 °F 95% 30.08 in 0.2 mi Calm Calm - N/A Fog Fog
2:15 AM 61.5 °F - 60.1 °F 95% 30.08 in 0.2 mi Calm Calm - N/A Fog Fog
2:35 AM 61.7 °F - 60.3 °F 95% 30.07 in 0.8 mi Calm Calm - N/A   Mist
2:55 AM 61.9 °F - 60.4 °F 95% 30.07 in 0.5 mi Calm Calm - N/A Fog Fog
3:15 AM 61.7 °F - 60.3 °F 95% 30.07 in 1.0 mi Calm Calm - N/A   Mist
3:35 AM 60.8 °F - 59.4 °F 95% 30.07 in 2.5 mi Calm Calm - N/A   Clear
3:55 AM 60.6 °F - 59.4 °F 96% 30.07 in 4.0 mi Calm Calm - N/A   Clear
4:15 AM 60.3 °F - 59.0 °F 96% 30.07 in 1.8 mi Calm Calm - N/A   Mist
4:35 AM 60.1 °F - 58.8 °F 96% 30.07 in 5.0 mi Calm Calm - N/A   Clear
4:55 AM 59.0 °F - 57.7 °F 96% 30.07 in 1.2 mi Calm Calm - N/A   Mist
5:15 AM 58.3 °F - 57.0 °F 96% 30.07 in 0.8 mi Calm Calm - N/A   Mist
5:35 AM 57.6 °F - 56.3 °F 96% 30.07 in 7.0 mi Calm Calm - N/A   Clear
5:55 AM 58.1 °F - 56.8 °F 96% 30.07 in 3.0 mi Calm Calm - N/A   Clear
6:15 AM 58.5 °F - 57.2 °F 96% 30.07 in 3.0 mi NNW 3.5 mph - N/A   Clear
6:35 AM 58.3 °F - 57.0 °F 96% 30.08 in 5.0 mi Calm Calm - N/A   Clear
6:55 AM 59.0 °F - 57.7 °F 96% 30.09 in 7.0 mi Calm Calm - N/A   Clear
7:15 AM 57.4 °F - 56.3 °F 96% 30.09 in 5.0 mi Calm Calm - N/A   Clear
7:35 AM 59.7 °F - 58.5 °F 96% 30.09 in 3.0 mi NNW 3.5 mph - N/A   Clear
7:55 AM 62.1 °F - 61.0 °F 96% 30.09 in 10.0 mi NNW 4.6 mph - N/A   Clear
8:15 AM 63.1 °F - 61.9 °F 96% 30.10 in 10.0 mi Calm Calm - N/A   Clear
8:35 AM 64.8 °F - 63.3 °F 95% 30.10 in 10.0 mi Calm Calm - N/A   Clear
8:55 AM 67.3 °F - 63.9 °F 89% 30.09 in 10.0 mi Calm Calm - N/A   Clear
9:15 AM 67.8 °F - 62.6 °F 83% 30.09 in 10.0 mi North 4.6 mph - N/A   Clear
9:35 AM 69.8 °F - 63.0 °F 79% 30.09 in 10.0 mi NNW 4.6 mph - N/A   Clear
9:55 AM 71.8 °F - 63.1 °F 74% 30.09 in 10.0 mi NNW 8.1 mph - N/A   Clear
10:15 AM 73.2 °F - 62.1 °F 68% 30.09 in 10.0 mi NNW 4.6 mph - N/A   Clear
10:35 AM 73.9 °F - 61.9 °F 66% 30.09 in 10.0 mi NNW 8.1 mph - N/A   Clear
10:55 AM 74.8 °F - 62.1 °F 64% 30.09 in 10.0 mi North 4.6 mph - N/A   Clear
11:15 AM 76.6 °F - 62.8 °F 62% 30.09 in 10.0 mi North 8.1 mph - N/A   Clear
11:35 AM 77.2 °F - 62.2 °F 60% 30.08 in 10.0 mi NNE 6.9 mph - N/A   Clear
11:55 AM 77.9 °F - 60.4 °F 55% 30.08 in 10.0 mi North 8.1 mph - N/A   Clear
12:15 PM 78.6 °F - 60.6 °F 54% 30.07 in 10.0 mi North 8.1 mph - N/A   Clear
12:35 PM 78.8 °F - 60.6 °F 54% 30.07 in 10.0 mi North 8.1 mph - N/A   Clear
12:55 PM 79.7 °F - 60.1 °F 51% 30.07 in 10.0 mi North 6.9 mph - N/A   Clear
1:15 PM 80.1 °F 81.1 °F 61.2 °F 52% 30.06 in 10.0 mi NW 6.9 mph - N/A   Clear
1:35 PM 81.0 °F 81.7 °F 60.6 °F 50% 30.05 in 10.0 mi NNW 3.5 mph - N/A   Clear
1:55 PM 81.0 °F 81.6 °F 60.3 °F 49% 30.04 in 10.0 mi North 5.8 mph - N/A   Clear
2:15 PM 81.5 °F 81.8 °F 59.2 °F 47% 30.04 in 10.0 mi North 5.8 mph - N/A   Clear
2:35 PM 81.7 °F 81.6 °F 57.9 °F 44% 30.03 in 10.0 mi North 5.8 mph - N/A   Clear
2:55 PM 82.0 °F 81.6 °F 56.3 °F 41% 30.02 in 10.0 mi NNE 5.8 mph - N/A   Clear
3:15 PM 82.2 °F 82.0 °F 57.7 °F 43% 30.02 in 10.0 mi North 6.9 mph - N/A   Clear
3:35 PM 82.8 °F 82.5 °F 58.3 °F 43% 30.01 in 10.0 mi North 5.8 mph - N/A   Clear
3:55 PM 82.9 °F 82.8 °F 59.2 °F 44% 30.01 in 10.0 mi North 4.6 mph - N/A   Clear
4:15 PM 82.8 °F 82.4 °F 57.2 °F 42% 30.00 in 10.0 mi NNW 4.6 mph - N/A   Clear
4:35 PM 83.3 °F 82.9 °F 58.3 °F 42% 30.00 in 10.0 mi North 4.6 mph - N/A   Clear
4:55 PM 82.8 °F 82.4 °F 57.7 °F 42% 30.00 in 10.0 mi NNW 4.6 mph - N/A   Clear
5:15 PM 82.8 °F 82.4 °F 57.6 °F 42% 30.00 in 10.0 mi North 3.5 mph - N/A   Clear
5:35 PM 82.4 °F 82.0 °F 57.0 °F 42% 30.00 in 10.0 mi NNW 6.9 mph - N/A   Clear
5:55 PM 82.0 °F 82.0 °F 58.1 °F 44% 29.99 in 10.0 mi NNW 4.6 mph - N/A   Clear
6:15 PM 81.5 °F 81.8 °F 59.5 °F 47% 29.99 in 10.0 mi NW 3.5 mph - N/A   Clear
6:35 PM 80.6 °F 81.2 °F 59.7 °F 49% 29.99 in 10.0 mi NW 3.5 mph - N/A   Clear
6:55 PM 79.9 °F - 59.9 °F 50% 29.99 in 10.0 mi Calm Calm - N/A   Clear
7:15 PM 78.1 °F - 62.1 °F 58% 29.98 in 10.0 mi Calm Calm - N/A   Clear
7:35 PM 75.6 °F - 62.4 °F 64% 29.98 in 10.0 mi Calm Calm - N/A   Clear
7:55 PM 73.8 °F - 63.7 °F 71% 29.97 in 10.0 mi Calm Calm - N/A   Clear
8:15 PM 71.1 °F - 65.7 °F 83% 29.98 in 7.0 mi WSW 3.5 mph - N/A   Clear
8:35 PM 69.1 °F - 65.5 °F 88% 29.99 in 10.0 mi Calm Calm - N/A   Clear
8:55 PM 69.4 °F - 65.8 °F 88% 29.99 in 10.0 mi Calm Calm - N/A   Clear
9:15 PM 68.2 °F - 65.1 °F 90% 29.99 in 10.0 mi Calm Calm - N/A   Clear
9:35 PM 69.6 °F - 65.5 °F 87% 29.99 in 10.0 mi West 4.6 mph - N/A   Clear
9:55 PM 67.6 °F - 64.4 °F 89% 29.99 in 10.0 mi WSW 3.5 mph - N/A   Clear
10:15 PM 69.4 °F - 65.3 °F 87% 30.00 in 10.0 mi WSW 3.5 mph - N/A   Clear
10:35 PM 68.0 °F - 64.8 °F 89% 29.99 in 10.0 mi WSW 4.6 mph - N/A   Clear
10:55 PM 67.3 °F - 64.4 °F 90% 29.99 in 10.0 mi West 4.6 mph - N/A   Clear
11:15 PM 69.1 °F - 63.3 °F 82% 29.99 in 10.0 mi West 4.6 mph - N/A   Clear
11:35 PM 68.2 °F - 62.8 °F 83% 29.99 in 10.0 mi WSW 3.5 mph - N/A   Clear
11:55 PM 68.0 °F - 62.6 °F 83% 29.99 in 10.0 mi WSW 3.5 mph - N/A   Clear